GEFSSE_500_meanwind_366.txt.gz
Wind_Speed
5 5 6 5 5 4 4 4 5 6 6 6 7 7 7 7 7 6 6 6 6 6 6 6 6 6 6 6 6 7 7 8 7 6 6 7 8 7 7 6 7 7 7
5 5 6 5 5 5 5 5 6 6 6 7 6 6 6 6 6 6 5 5 5 6 6 6 6 6 6 6 7 7 7 7 7 7 7 7 8 8 7 7 7 7 7
6 6 6 6 6 6 6 6 6 6 6 6 6 6 6 7 6 5 5 4 5 5 6 7 7 6 6 6 6 6 7 7 7 7 6 7 7 7 7 6 6 6 7
7 7 7 7 7 7 6 6 6 6 7 6 6 7 7 6 6 5 4 4 4 4 5 7 7 6 6 6 6 6 6 6 7 7 7 7 8 8 8 8 7 7 7
8 7 7 7 7 7 6 4 5 7 7 7 6 8 7 6 5 4 3 3 4 4 4 6 7 7 7 6 7 7 6 6 7 6 6 6 7 8 9 9 9 8 8
8 7 7 7 7 7 7 7 7 8 7 6 7 7 6 6 5 4 3 3 4 4 4 5 6 7 7 6 6 7 7 7 7 6 5 5 7 8 8 9 8 9 8
8 8 7 7 7 7 7 8 9 8 7 6 6 6 5 5 4 4 4 3 3 4 4 5 5 6 6 6 6 6 6 6 6 6 6 6 6 7 7 8 8 8 9
8 8 8 7 7 7 7 7 7 7 7 7 6 6 5 4 4 4 4 4 4 4 4 4 4 4 4 4 5 5 5 6 6 7 7 7 7 8 8 7 7 8 9
9 8 8 7 7 7 6 6 5 5 5 5 5 4 4 4 3 3 3 4 4 4 4 3 3 3 3 4 4 4 5 6 6 5 7 7 8 8 8 8 8 9 10
9 8 8 7 7 6 6 5 5 5 5 4 4 3 3 3 3 3 3 2 2 3 3 3 3 3 3 3 3 4 5 6 7 6 6 6 7 8 9 9 9 9 9
9 8 8 7 7 6 5 5 4 4 4 3 3 2 1 1 1 1 2 2 2 2 2 2 3 3 3 3 3 3 4 5 6 6 6 6 7 8 9 9 9 9 10
9 8 7 6 6 5 5 4 4 3 2 2 2 2 1 1 1 1 1 1 2 2 2 2 2 3 3 4 3 3 4 5 5 5 6 7 7 7 8 9 9 9 10
8 8 7 6 5 5 4 4 3 3 2 2 2 1 1 0 0 0 1 1 1 1 1 2 2 3 3 4 4 4 4 4 5 6 6 7 7 8 8 9 9 10 10
7 8 8 7 7 5 4 4 3 3 2 1 1 1 1 1 1 0 0 1 1 2 2 3 3 3 4 4 5 5 5 5 5 6 7 7 7 8 8 9 9 9 11
6 7 7 7 7 6 6 5 4 3 2 2 2 1 1 1 1 1 1 1 1 2 2 3 4 4 4 5 5 5 5 5 6 6 7 8 8 8 9 10 10 10 10
6 6 6 6 6 6 6 6 5 4 3 2 2 1 1 1 2 2 1 1 2 2 4 4 4 5 5 5 5 6 6 6 6 6 6 7 8 9 9 10 10 11 11
6 5 5 5 6 6 6 6 6 5 4 3 2 2 2 2 2 2 2 2 3 3 3 4 4 5 5 6 6 6 7 7 7 7 7 7 8 9 9 10 11 11 11
6 6 5 5 6 6 6 6 6 5 4 4 3 3 3 3 3 3 3 3 2 3 3 4 4 5 6 6 6 7 7 8 9 9 9 9 9 9 9 10 10 10 11
6 6 6 6 6 6 6 6 6 5 4 4 3 4 4 3 3 3 3 3 4 4 4 4 5 5 6 7 7 7 8 9 9 10 10 10 11 11 11 11 11 11 12
6 6 6 6 6 7 7 7 7 6 5 5 4 4 5 5 4 4 4 4 5 5 5 6 6 6 7 7 8 8 9 9 10 10 11 11 11 12 12 13 13 13 13
7 6 7 7 7 7 6 6 6 6 6 6 6 6 6 6 5 5 6 6 6 6 6 6 7 7 7 7 8 9 9 10 10 11 12 12 13 13 14 14 14 15 15
8 7 7 7 7 7 7 7 6 6 7 7 7 7 7 7 6 6 7 7 7 8 8 8 8 8 8 9 9 9 10 11 12 12 12 13 14 15 15 15 15 16 16
8 8 8 8 7 7 7 7 6 7 8 8 8 8 8 8 8 7 8 9 9 10 10 10 9 9 10 10 10 11 12 13 14 14 14 14 15 15 16 16 16 17 18
8 8 8 8 8 8 7 6 7 8 9 8 8 9 9 9 9 9 9 10 10 10 10 10 11 11 12 12 12 13 14 14 15 15 16 16 16 16 17 18 18 18 19
8 9 8 9 8 8 8 8 9 9 10 10 10 10 11 11 11 11 11 11 11 11 11 12 13 13 13 13 14 14 15 15 16 16 17 17 17 18 18 19 19 20 19
9 9 9 9 9 8 9 9 10 10 11 11 12 11 12 12 12 13 13 13 12 13 13 14 14 15 15 15 16 16 16 17 17 17 18 18 18 18 19 19 20 21 21

GEFSSE_500_meanwind_372.txt.gz
Wind_Speed
5 5 4 3 3 2 1 2 3 4 3 3 4 5 5 5 6 5 6 6 6 6 6 6 5 5 5 5 4 5 5 6 5 6 6 6 7 8 7 6 6 6 5
5 5 4 3 3 3 2 2 3 3 3 4 4 6 6 6 5 5 5 5 5 5 6 6 5 5 5 5 5 5 5 6 6 6 6 6 6 7 6 6 5 5 4
5 5 5 4 4 3 3 3 2 3 3 4 4 5 5 4 4 4 4 3 4 4 4 5 5 6 5 5 5 6 6 5 5 5 5 5 6 6 6 6 6 5 5
5 5 5 5 4 3 2 2 2 2 3 3 3 3 4 3 3 3 3 3 3 4 4 4 5 5 6 6 6 5 6 5 5 5 4 4 4 5 6 6 6 6 5
5 5 5 5 5 4 2 2 3 3 3 3 2 2 3 3 2 2 2 3 4 4 5 5 6 6 5 5 5 4 4 5 4 5 4 4 4 4 4 5 6 6 6
6 5 5 6 5 6 5 4 4 3 3 2 2 1 1 2 2 2 2 3 4 5 6 5 5 6 5 5 6 5 4 5 5 5 5 4 4 4 4 4 5 5 5
6 6 6 6 6 7 7 7 5 4 3 2 2 1 1 1 1 2 3 3 3 3 4 4 4 5 5 5 6 5 5 6 6 5 4 4 4 5 5 5 5 6 6
7 7 7 6 6 6 6 5 4 4 3 2 2 1 1 0 1 2 3 2 2 1 2 2 3 4 4 4 4 4 4 5 6 6 5 5 5 5 6 6 5 5 6
7 7 7 7 6 6 6 5 4 2 2 2 1 1 0 1 2 2 3 3 1 1 2 2 4 4 4 3 3 3 3 4 5 6 6 5 5 5 6 6 7 6 6
8 7 7 7 6 6 5 5 5 3 2 1 1 1 1 2 2 2 2 2 1 1 2 3 4 3 3 2 3 3 3 4 4 5 5 6 6 6 6 6 6 5 6
8 8 7 7 7 6 5 5 4 4 3 2 2 2 2 2 2 2 2 2 1 2 3 4 4 3 3 3 3 3 4 4 5 5 4 5 5 5 6 6 6 6 6
8 7 7 7 7 7 6 5 5 4 4 4 3 3 3 3 3 3 2 2 2 2 2 3 3 3 3 3 2 3 3 4 4 5 4 5 6 6 6 6 6 6 6
8 8 7 7 7 7 7 6 6 5 4 4 4 4 4 5 5 3 2 1 1 1 1 2 2 2 3 3 3 3 4 4 5 4 4 5 6 7 7 7 7 7 7
8 8 8 8 8 7 7 7 6 7 6 5 5 5 5 6 6 5 3 2 2 2 2 3 3 3 3 3 3 3 4 5 5 5 5 6 6 7 8 8 8 8 8
8 8 8 8 8 8 7 7 7 6 6 6 6 6 6 6 6 5 4 4 3 2 3 3 3 4 4 4 4 5 5 5 5 5 5 5 6 7 7 8 9 9 8
8 8 8 9 9 9 8 7 7 7 7 7 6 7 7 7 6 5 4 4 4 4 3 3 4 5 5 6 6 6 6 6 6 6 6 6 6 7 7 7 8 8 9
8 8 8 9 9 9 9 9 7 7 7 6 7 7 7 8 7 6 5 5 5 4 4 4 5 5 6 6 6 6 6 7 7 7 7 6 7 7 7 8 8 9 9
8 8 9 9 9 9 9 8 8 8 7 6 6 7 8 8 7 7 6 7 7 7 6 6 6 6 7 7 7 7 8 7 8 8 8 7 7 7 7 8 9 9 10
9 9 9 9 9 9 9 8 9 9 8 7 7 7 7 8 8 8 8 9 9 9 8 7 7 8 8 8 8 8 9 9 9 9 10 9 8 8 9 9 9 10 10
9 9 9 9 9 9 8 9 9 9 8 7 7 8 8 8 8 9 9 9 9 9 9 9 9 9 9 9 9 9 9 10 10 10 10 11 11 11 11 11 11 11 11
9 10 10 10 9 8 9 9 10 10 9 8 8 8 9 9 10 10 10 10 10 10 10 9 10 10 9 10 10 10 10 11 11 11 11 12 12 13 13 13 13 13 13
10 10 10 10 10 9 9 9 10 10 10 10 9 9 10 10 11 11 11 11 11 11 11 11 10 11 11 11 11 11 12 12 12 13 13 13 13 13 14 14 14 15 14
10 11 11 10 10 10 10 10 11 11 11 11 11 11 12 12 12 13 12 12 12 12 13 13 12 12 12 13 13 13 13 13 13 13 14 14 15 15 15 16 16 16 17
11 11 10 10 11 11 11 11 11 11 11 12 12 13 13 13 14 14 13 13 13 13 13 13 14 14 14 14 15 15 15 14 14 15 15 15 15 15 16 17 17 17 17
11 11 11 11 11 11 12 12 12 12 12 13 13 14 14 14 15 15 15 15 14 15 15 15 15 15 16 16 16 16 16 16 16 17 17 17 17 17 17 18 18 18 19
12 11 12 12 12 12 13 13 13 13 13 14 14 15 15 15 15 16 17 16 16 16 16 16 16 16 17 17 17 18 18 18 18 18 18 18 19 18 19 20 20 20 20

GEFSSE_500_meanwind_378.txt.gz
Wind_Speed
8 7 6 6 5 4 4 4 4 3 3 3 3 4 4 4 4 4 4 4 5 5 5 5 5 4 4 4 4 5 5 6 6 7 6 6 7 7 7 7 7 6 6
8 7 6 5 5 4 4 4 4 3 3 4 4 4 4 4 4 4 3 4 4 5 5 5 5 4 4 4 4 4 4 5 6 7 6 6 6 6 7 7 7 7 6
8 7 7 5 4 4 4 4 4 4 3 4 3 4 4 3 3 4 3 3 3 3 4 5 5 4 5 4 4 4 5 5 6 6 5 4 5 5 6 6 7 7 7
10 9 8 7 5 4 3 3 3 3 3 3 3 3 3 3 3 3 3 2 2 2 3 4 4 4 5 5 5 4 5 5 4 5 5 4 4 5 5 5 5 6 6
10 10 9 8 6 5 3 3 3 3 4 3 3 3 3 2 2 2 2 2 2 3 3 4 4 5 5 6 6 5 5 5 5 6 5 4 5 5 5 5 4 4 5
10 10 10 10 9 6 5 4 4 4 3 3 2 3 2 2 1 1 1 2 3 3 4 4 4 5 5 6 6 6 6 5 6 6 5 5 5 4 5 5 5 4 5
10 10 10 11 11 9 7 6 5 5 4 3 3 2 2 1 0 1 2 2 3 4 4 5 5 5 5 6 6 6 6 5 6 6 5 5 5 4 4 4 4 5 6
10 10 10 10 11 10 9 8 6 5 4 4 3 2 2 1 1 2 2 3 4 5 5 5 6 5 5 5 5 4 5 4 5 5 5 5 5 5 5 5 5 6 7
10 10 10 10 10 9 8 8 7 6 5 4 3 3 2 1 2 2 2 2 2 3 4 5 6 7 7 6 5 4 4 4 3 5 6 6 6 5 5 6 6 6 8
10 10 10 9 9 8 8 8 7 6 6 5 4 3 2 2 2 2 3 2 2 2 2 3 5 6 7 6 5 5 4 4 4 4 5 6 6 6 6 6 6 7 7
10 10 10 9 9 8 8 7 7 6 5 5 4 3 3 2 3 3 4 3 2 1 0 2 4 6 7 6 5 5 5 5 5 5 5 6 6 6 6 7 7 7 8
10 10 9 9 8 8 7 7 7 6 6 5 5 5 4 3 3 4 3 3 1 0 1 2 4 5 6 6 6 6 6 6 6 5 5 6 6 7 7 8 7 8 8
10 9 9 9 9 8 8 7 7 6 7 6 6 5 5 4 4 3 3 2 2 1 1 3 4 5 5 5 5 5 6 6 6 5 5 5 6 7 7 8 8 8 9
10 9 9 9 9 8 7 7 6 6 7 6 6 6 5 5 4 4 4 3 2 2 1 2 4 5 5 5 5 5 6 6 6 6 6 6 6 7 6 7 8 9 9
9 9 9 9 10 9 7 6 6 6 6 6 6 6 6 5 5 5 5 3 3 2 1 1 3 4 5 5 6 6 6 6 6 7 7 7 6 7 6 6 8 9 9
9 9 9 9 9 8 7 6 6 7 6 6 6 6 6 5 5 5 4 4 4 3 2 2 2 3 4 5 6 6 6 7 7 7 7 7 7 7 7 6 7 8 9
9 9 8 9 9 8 8 7 6 6 7 6 6 6 6 5 6 6 5 4 4 4 3 3 3 3 4 4 5 5 6 7 7 7 7 8 8 8 8 8 8 8 9
8 8 8 9 9 9 8 8 7 6 6 6 6 6 6 5 6 6 6 5 5 5 5 4 4 4 4 4 5 5 6 8 8 8 8 8 9 9 9 8 8 10 10
8 8 8 8 8 8 8 7 7 7 7 6 6 6 6 5 6 6 7 7 6 6 6 5 5 5 5 6 6 7 8 8 9 9 10 10 10 10 10 10 10 11 12
8 8 8 8 8 8 8 7 7 7 7 6 6 6 7 7 7 6 7 7 7 7 6 6 6 6 6 7 7 8 8 9 9 10 10 10 10 11 11 12 12 12 13
8 8 8 8 8 9 8 7 8 7 7 7 7 7 7 7 7 7 7 8 8 8 8 8 7 7 8 8 8 9 9 10 10 10 10 11 11 11 12 13 13 13 13
8 8 7 7 8 8 8 7 7 7 7 7 8 8 7 7 7 8 8 9 9 9 9 9 9 9 9 9 9 10 10 11 12 12 12 12 13 13 13 13 14 14 14
8 8 7 7 7 7 7 7 8 8 8 8 9 9 9 8 8 8 9 10 10 11 10 10 10 10 10 10 10 11 11 12 13 14 14 14 14 14 14 14 15 15 15
8 8 8 7 8 8 8 8 8 8 9 9 10 10 10 10 9 9 10 11 12 11 11 11 11 11 12 12 12 12 12 12 13 14 15 17 17 16 16 16 16 17 17
9 9 9 9 8 8 8 9 9 9 10 10 11 11 11 11 11 11 12 12 12 12 13 13 13 13 13 13 13 14 14 14 15 15 16 17 18 18 18 18 18 18 18
9 9 10 10 9 9 9 10 10 10 11 11 12 12 11 12 12 13 13 14 14 14 14 14 14 14 14 14 15 15 16 16 16 16 16 17 18 19 19 20 19 19 19

GEFSSE_500_meanwind_384.txt.gz
Wind_Speed
7 7 7 6 6 6 6 7 7 7 6 6 6 5 6 5 5 5 4 4 4 4 4 3 3 2 2 3 4 6 5 5 6 6 5 5 6 5 5 6 6 5 5
6 7 7 6 6 6 6 6 7 7 7 7 6 6 6 5 5 5 5 4 4 4 3 3 3 3 3 3 4 4 5 5 5 5 5 5 5 5 6 5 6 5 5
7 7 7 6 6 6 6 6 7 7 7 7 6 6 6 5 5 4 4 3 3 3 3 3 3 4 3 3 3 4 4 5 4 4 4 4 4 5 5 6 6 5 6
8 7 7 7 7 7 7 6 6 7 7 7 7 6 5 5 4 4 3 2 2 2 2 3 3 4 4 3 3 4 5 5 5 4 4 4 4 4 5 5 5 5 6
9 8 8 7 7 7 6 6 7 7 7 6 6 5 5 4 4 3 3 2 2 2 2 3 3 4 4 4 4 4 4 5 5 5 4 4 5 5 5 5 5 5 6
10 9 9 8 8 8 7 6 7 7 7 6 6 6 5 3 3 2 2 1 1 2 2 3 3 3 4 5 5 5 5 5 5 6 5 5 5 5 5 5 5 5 6
10 10 10 9 9 10 9 8 7 7 6 6 6 5 4 3 2 2 1 1 1 2 2 3 3 4 5 5 5 5 5 5 5 5 5 5 5 5 5 5 5 5 6
11 11 11 11 10 10 9 8 7 7 6 6 5 4 3 2 2 1 1 1 1 2 3 3 3 5 5 6 6 5 6 6 6 5 4 5 5 5 6 5 5 6 6
10 10 11 11 10 9 9 8 7 7 6 6 5 4 3 2 1 1 1 0 1 2 2 3 3 4 5 5 5 6 6 5 4 4 4 4 5 5 6 6 7 7 7
10 10 10 10 9 9 8 8 7 7 6 6 5 5 4 3 2 2 1 0 1 2 3 3 4 4 4 5 5 6 5 5 4 4 4 5 5 6 6 7 7 7 7
9 9 9 9 8 7 7 7 6 6 6 6 5 5 4 3 2 3 3 2 1 2 3 3 4 5 6 5 5 6 6 6 5 5 5 5 6 6 7 8 8 8 8
9 9 8 8 7 7 6 6 6 6 6 5 5 4 4 3 3 3 3 2 2 2 3 3 4 6 7 7 7 7 7 6 6 6 6 6 7 7 7 8 8 9 9
9 9 9 8 7 6 6 6 6 5 5 5 5 5 5 4 3 3 3 3 2 2 3 4 4 5 7 7 7 7 7 7 7 7 7 7 7 7 7 8 8 8 9
9 9 8 8 7 6 5 5 5 5 5 5 5 5 5 4 4 3 3 3 2 2 3 3 4 5 7 6 6 7 7 7 7 7 7 8 8 8 8 8 9 9 10
8 7 7 7 7 6 5 5 5 5 5 4 4 4 4 4 3 3 4 4 3 2 2 2 3 4 5 5 6 7 7 7 7 7 8 8 8 9 9 10 11 10 10
7 7 7 6 6 6 5 5 5 5 4 4 5 4 4 3 3 3 4 4 4 3 2 2 3 4 5 6 6 7 7 8 8 8 8 9 9 9 9 10 10 11 12
7 6 5 5 5 5 4 4 4 4 3 4 5 5 4 4 3 3 4 4 3 3 2 3 3 4 5 5 6 7 8 8 8 9 9 9 9 10 10 10 11 11 12
6 5 5 4 4 4 4 4 4 4 4 4 5 6 5 5 5 3 4 4 4 3 3 3 4 5 5 6 6 7 8 8 9 9 10 10 11 11 11 12 12 13 12
6 5 5 4 4 4 4 5 4 4 5 5 6 6 7 6 6 5 5 4 4 4 4 4 4 5 6 7 7 7 8 9 9 10 11 11 12 12 13 13 14 14 14
6 5 5 5 5 4 5 5 5 5 5 6 7 7 7 7 7 7 6 5 5 5 5 5 6 6 7 8 8 8 8 9 10 11 11 11 12 13 14 14 14 15 15
6 4 6 6 5 5 5 5 5 6 6 7 7 7 8 8 7 7 7 7 6 6 6 6 7 7 8 8 9 9 10 10 11 11 12 12 13 14 14 15 15 15 15
5 5 6 5 5 5 5 6 6 6 6 7 8 8 8 8 8 7 8 8 8 8 7 7 8 8 9 9 10 11 12 12 12 12 13 14 14 15 15 15 16 16 16
5 5 5 6 6 6 6 7 7 7 7 8 8 8 8 8 8 9 9 10 10 11 11 11 10 10 10 11 12 12 12 12 13 14 14 14 15 15 16 17 17 18 18
5 5 6 7 6 6 7 7 8 8 8 8 8 8 9 9 10 11 11 12 12 12 13 13 12 13 13 13 13 13 14 14 15 15 16 16 17 17 18 18 20 20 20
7 6 6 7 7 7 7 8 8 8 9 9 10 10 11 11 12 13 13 14 14 14 14 14 14 14 15 15 15 15 16 16 16 17 17 18 19 19 20 20 21 21 21
7 7 7 8 8 8 8 9 9 9 10 10 11 11 12 13 14 14 14 15 15 15 15 15 15 16 16 17 17 17 17 17 18 19 19 19 20 21 21 21 21 22 22